| time (UTC) | temp C | wind direction | speed KPH | gust KPH | rain 1hr cm | rain 24hr cm | rain mn cm | humidity % | barometer mb |
| 20260904081523 | 10 | 178 | 0.0 | 0.0 | 0.10 | 1.30 | 0.10 | 100 | 1009.5 |
| 20260904080020 | 10 | 178 | 0.0 | 0.0 | 0.05 | 1.24 | 0.05 | 100 | 1009.7 |
| 20260904074514 | 10 | 178 | 0.0 | 0.0 | 0.00 | 1.19 | 0.00 | 100 | 1009.8 |
| 20260904073010 | 10 | 178 | 0.0 | 0.0 | 0.03 | 1.19 | 0.00 | 100 | 1009.7 |
| 20260904071505 | 10 | 178 | 0.0 | 0.0 | 0.03 | 1.19 | 0.00 | 100 | 1009.6 |
| 20260904070101 | 10 | 178 | 0.0 | 0.0 | 0.03 | 1.19 | 1.19 | 100 | 1009.5 |
| 20260904064605 | 10 | 178 | 0.0 | 0.0 | 0.03 | 1.19 | 1.19 | 100 | 1009.6 |
| 20260904063052 | 10 | 178 | 0.0 | 0.0 | 0.00 | 1.17 | 1.17 | 100 | 1009.5 |
| 20260904061547 | 10 | 178 | 0.0 | 1.6 | 0.00 | 1.17 | 1.17 | 100 | 1009.4 |
| 20260904060110 | 10 | 178 | 0.0 | 0.0 | 0.00 | 1.17 | 1.17 | 100 | 1009.4 |
| 20260904054540 | 11 | 178 | 0.0 | 1.6 | 0.00 | 1.17 | 1.17 | 100 | 1009.5 |
| 20260904053112 | 11 | 178 | 0.0 | 0.0 | 0.00 | 1.17 | 1.17 | 100 | 1009.5 |
| 20260904051536 | 11 | 178 | 0.0 | 0.0 | 0.00 | 1.17 | 1.17 | 100 | 1009.6 |
| 20260904050032 | 11 | 178 | 0.0 | 1.6 | 0.00 | 1.17 | 1.17 | 100 | 1009.7 |
| 20260904044522 | 11 | 178 | 0.0 | 1.6 | 0.00 | 1.17 | 1.17 | 100 | 1009.6 |
| 20260904043017 | 11 | 178 | 0.0 | 1.6 | 0.00 | 1.17 | 1.17 | 100 | 1009.5 |
| 20260904041512 | 11 | 178 | 0.0 | 3.2 | 0.00 | 1.17 | 1.17 | 100 | 1009.4 |
| 20260904040008 | 11 | 176 | 0.0 | 3.2 | 0.00 | 1.17 | 1.17 | 100 | 1009.6 |
| 20260904034504 | 11 | 204 | 0.0 | 1.6 | 0.03 | 1.17 | 1.17 | 100 | 1009.5 |
| 20260904033107 | 11 | 203 | 0.0 | 0.0 | 0.05 | 1.17 | 1.17 | 100 | 1009.3 |
| 20260904031556 | 11 | 203 | 0.0 | 0.0 | 0.10 | 1.17 | 1.17 | 100 | 1009.3 |
| 20260904030051 | 11 | 203 | 0.0 | 4.8 | 0.18 | 1.17 | 1.17 | 100 | 1009.4 |
| 20260904024549 | 11 | 236 | 0.0 | 6.4 | 0.15 | 1.14 | 1.14 | 100 | 1009.5 |
| 20260904023052 | 11 | 155 | 1.6 | 8.0 | 0.15 | 1.12 | 1.12 | 100 | 1009.6 |
| 20260904021537 | 12 | 178 | 0.0 | 4.8 | 0.13 | 1.07 | 1.07 | 100 | 1009.4 |
| 20260904020038 | 12 | 178 | 0.0 | 1.6 | 0.05 | 1.02 | 0.99 | 100 | 1009.4 |
| 20260904014529 | 12 | 178 | 0.0 | 3.2 | 0.05 | 1.02 | 0.99 | 100 | 1009.3 |
| 20260904013024 | 12 | 178 | 0.0 | 1.6 | 0.05 | 0.99 | 0.97 | 100 | 1009.2 |
| 20260904011521 | 12 | 178 | 0.0 | 4.8 | 0.05 | 0.97 | 0.94 | 100 | 1009.3 |
| 20260904010015 | 12 | 178 | 0.0 | 1.6 | 0.05 | 0.99 | 0.94 | 100 | 1009.3 |
| 20260904004511 | 12 | 178 | 0.0 | 9.7 | 0.13 | 0.99 | 0.94 | 100 | 1009.2 |
| 20260904003006 | 12 | 176 | 0.0 | 11.3 | 0.10 | 0.97 | 0.91 | 100 | 1009.3 |
| 20260904001502 | 12 | 173 | 0.0 | 4.8 | 0.10 | 0.94 | 0.89 | 100 | 1009.4 |
| 20260904000114 | 12 | 210 | 0.0 | 0.0 | 0.10 | 1.17 | 0.89 | 100 | 1009.5 |
| 20260903234553 | 12 | 210 | 0.0 | 3.2 | 0.05 | 1.09 | 0.81 | 100 | 1009.5 |
| 20260903233112 | 12 | 210 | 0.0 | 3.2 | 0.15 | 1.09 | 0.81 | 100 | 1009.4 |
| 20260903231547 | 12 | 161 | 0.0 | 3.2 | 0.15 | 1.07 | 0.79 | 100 | 1009.5 |
| 20260903224543 | 11 | 159 | 0.0 | 4.8 | 0.15 | 1.19 | 0.76 | 100 | 1009.6 |
| 20260903223048 | 12 | 232 | 1.6 | 6.4 | 0.08 | 1.09 | 0.66 | 100 | 1009.7 |
| 20260903221528 | 11 | 202 | 0.0 | 6.4 | 0.18 | 1.07 | 0.64 | 100 | 1009.7 |
| 20260903220023 | 11 | 199 | 0.0 | 3.2 | 0.18 | 1.09 | 0.64 | 100 | 1009.7 |
| 20260903214519 | 11 | 195 | 0.0 | 3.2 | 0.15 | 1.07 | 0.61 | 2 | 1009.9 |
| 20260903213025 | 11 | 188 | 1.6 | 11.3 | 0.13 | 1.04 | 0.58 | 22 | 1010.1 |
| 20260903211510 | 12 | 188 | 3.2 | 11.3 | 0.00 | 0.91 | 0.46 | 32 | 1010.1 |
| 20260903210006 | 12 | 176 | 0.0 | 6.4 | 0.00 | 0.94 | 0.46 | 37 | 1009.8 |
| 20260903204502 | 13 | 285 | 1.6 | 11.3 | 0.00 | 0.94 | 0.46 | 34 | 1009.7 |
| 20260903203057 | 13 | 336 | 6.4 | 11.3 | 0.00 | 0.94 | 0.46 | 22 | 1009.9 |
| 20260903201552 | 13 | 288 | 3.2 | 9.7 | 0.00 | 0.94 | 0.46 | 11 | 1009.8 |
| 20260903200048 | 13 | 190 | 1.6 | 8.0 | 0.00 | 0.99 | 0.46 | 4 | 1009.9 |
| 20260903194548 | 12 | 144 | 0.0 | 12.9 | 0.00 | 0.99 | 0.46 | 4 | 1010.0 |
| 20260903193044 | 12 | 257 | 1.6 | 22.5 | 0.03 | 0.99 | 0.46 | 8 | 1010.1 |
| 20260903191535 | 13 | 190 | 1.6 | 19.3 | 0.03 | 0.99 | 0.46 | 8 | 1010.1 |
| 20260903190032 | 13 | 16 | 3.2 | 11.3 | 0.03 | 1.24 | 0.46 | 4 | 1010.1 |
| 20260903184527 | 13 | 313 | 3.2 | 9.7 | 0.08 | 1.24 | 0.46 | 100 | 1010.0 |
| 20260903183022 | 12 | 203 | 0.0 | 11.3 | 0.08 | 1.22 | 0.43 | 100 | 1009.9 |
| 20260903181517 | 12 | 242 | 0.0 | 9.7 | 0.10 | 1.22 | 0.43 | 100 | 1010.1 |
| 20260903180012 | 12 | 194 | 1.6 | 12.9 | 0.15 | 1.35 | 0.43 | 100 | 1010.1 |
| 20260903174508 | 12 | 164 | 0.0 | 11.3 | 0.10 | 1.30 | 0.38 | 100 | 1010.1 |
| 20260903173004 | 12 | 182 | 0.0 | 9.7 | 0.08 | 1.27 | 0.36 | 100 | 1010.0 |
| 20260903171612 | 12 | 227 | 0.0 | 9.7 | 0.05 | 1.24 | 0.33 | 1 | 1010.2 |
| 20260903170104 | 12 | 152 | 0.0 | 9.7 | 0.00 | 1.32 | 0.28 | 9 | 1010.2 |
| 20260903164551 | 12 | 194 | 3.2 | 12.9 | 0.00 | 1.32 | 0.28 | 4 | 1010.0 |
| 20260903163046 | 12 | 206 | 1.6 | 11.3 | 0.00 | 1.32 | 0.28 | 100 | 1010.1 |
| 20260903161541 | 12 | 227 | 1.6 | 14.5 | 0.00 | 1.32 | 0.28 | 100 | 1010.2 |
| 20260903160044 | 12 | 314 | 1.6 | 11.3 | 0.00 | 1.32 | 0.28 | 100 | 1010.1 |
| 20260903154533 | 12 | 211 | 3.2 | 16.1 | 0.00 | 1.32 | 0.28 | 100 | 1010.2 |
| 20260903153029 | 11 | 207 | 1.6 | 11.3 | 0.00 | 1.32 | 0.28 | 100 | 1010.1 |
| 20260903151524 | 11 | 207 | 3.2 | 11.3 | 0.00 | 1.32 | 0.28 | 100 | 1010.0 |
| 20260903150019 | 11 | 207 | 1.6 | 12.9 | 0.00 | 1.32 | 0.28 | 100 | 1009.9 |
| 20260903144529 | 11 | 143 | 1.6 | 11.3 | 0.03 | 1.32 | 0.28 | 100 | 1009.9 |
| 20260903143012 | 11 | 213 | 0.0 | 4.8 | 0.15 | 1.32 | 0.28 | 100 | 1009.8 |
| 20260903141510 | 11 | 286 | 0.0 | 1.6 | 0.23 | 1.32 | 0.28 | 100 | 1009.9 |
| 20260903140002 | 11 | 281 | 0.0 | 1.6 | 0.25 | 1.32 | 0.28 | 100 | 1009.9 |
| 20260903134601 | 11 | 281 | 0.0 | 4.8 | 0.25 | 1.30 | 0.25 | 100 | 1010.1 |
| 20260903133053 | 11 | 287 | 0.0 | 4.8 | 0.13 | 1.17 | 0.13 | 100 | 1010.0 |
| 20260903131604 | 11 | 273 | 0.0 | 4.8 | 0.05 | 1.09 | 0.05 | 100 | 1010.0 |
| 20260903130048 | 11 | 237 | 1.6 | 11.3 | 0.03 | 1.07 | 0.03 | 100 | 1009.7 |
| 20260903124541 | 11 | 194 | 0.0 | 8.0 | 0.00 | 1.04 | 0.00 | 100 | 1009.6 |
| 20260903123042 | 11 | 196 | 3.2 | 11.3 | 0.00 | 1.04 | 0.00 | 100 | 1009.7 |
| 20260903121550 | 11 | 115 | 0.0 | 11.3 | 0.00 | 1.04 | 0.00 | 100 | 1009.7 |
| 20260903120026 | 11 | 200 | 3.2 | 8.0 | 0.00 | 1.04 | 0.00 | 100 | 1009.8 |
| 20260903114522 | 11 | 177 | 1.6 | 11.3 | 0.00 | 1.04 | 0.00 | 100 | 1009.8 |
| 20260903113018 | 11 | 205 | 0.0 | 11.3 | 0.00 | 1.04 | 0.00 | 100 | 1009.8 |
| 20260903111513 | 11 | 172 | 0.0 | 8.0 | 0.00 | 1.04 | 0.00 | 100 | 1009.9 |
| 20260903110008 | 11 | 175 | 0.0 | 6.4 | 0.00 | 1.04 | 0.00 | 100 | 1009.9 |
| 20260903104505 | 11 | 167 | 0.0 | 6.4 | 0.00 | 1.04 | 0.00 | 100 | 1010.0 |
| 20260903103102 | 11 | 266 | 1.6 | 11.3 | 0.00 | 1.04 | 0.00 | 100 | 1010.1 |
| 20260903101556 | 11 | 255 | 3.2 | 11.3 | 0.00 | 1.04 | 0.00 | 100 | 1010.2 |
| 20260903100052 | 11 | 222 | 1.6 | 11.3 | 0.00 | 1.04 | 0.00 | 100 | 1010.0 |
| 20260903094553 | 11 | 165 | 3.2 | 11.3 | 0.00 | 1.04 | 0.00 | 100 | 1010.0 |
| 20260903093052 | 11 | 225 | 3.2 | 11.3 | 0.00 | 1.04 | 0.00 | 100 | 1010.0 |
| 20260903091550 | 11 | 204 | 4.8 | 14.5 | 0.00 | 1.04 | 0.00 | 100 | 1010.1 |
| 20260903090033 | 11 | 217 | 0.0 | 9.7 | 0.00 | 1.04 | 0.00 | 100 | 1010.3 |
| 20260903084529 | 11 | 144 | 1.6 | 8.0 | 0.00 | 1.04 | 0.00 | 100 | 1010.3 |
| 20260903083025 | 11 | 313 | 0.0 | 4.8 | 0.00 | 1.04 | 0.00 | 100 | 1010.3 |